Flag for Netherlands Weather past 2 weeks in Rotterdam, Netherlands

Now
59 °F

Light rain. Broken clouds.


Feels Like: 57 °F
Forecast: 53 / 59 °F
Wind: 10 mph from Northwest

Location: Rotterdam Zestienhoven Airport

Current Time: Sep 5, 2015 at 12:32:48 PM

Latest Report: Sep 5, 2015 at 11:55 AM


Visibility: N/A

Pressure: 30.01 "Hg

Humidity: 88%

Dew point: 55 °F

Location of RotterdamLocation

Historic Weather in Rotterdam — Graph

°F

Rotterdam temperature yesterday

Maximum temperature yesterday: 61 °F (at 9:55 AM)
Minimum temperature yesterday: 50 °F (at 12:25 AM)
Average temperature yesterday: 57 °F

Past Weeks' High & Low Weather Summary

 TemperatureHumidityPressure
High81 °F (Aug 21, 4:55 PM)100% (Aug 23, 10:55 PM)30.21 "Hg (Aug 23, 10:55 PM)
Low48 °F (Sep 3, 3:25 AM)39% (Aug 22, 4:55 PM)29.42 "Hg (Aug 24, 5:25 PM)
Average63 °F81%29.90 "Hg
* Reported Aug 21 11:25 AM — Sep 5 11:25 AM, Rotterdam, Weather by CustomWeather, © 2015

Note: Actual official high and low records may vary slightly from our data, if they occured in-between our weather recording intervals... More about our weather records

Advertising

Rotterdam weather history for previous 24 hours

 ConditionsComfort  
Time TempWeatherWind HumidityBarometerVisibility
11:25 AM
Sat, Sep 5
59 °FRain showers. Partly sunny.9 mph88%30.01 "HgN/A
10:55 AM59 °FPartly sunny.9 mph88%30.01 "HgN/A
10:25 AM59 °FLight rain. Broken clouds.12 mph82%29.98 "HgN/A
9:55 AM59 °FOvercast.9 mph82%29.98 "HgN/A
9:25 AM55 °FCloudy.8 mph100%29.98 "HgN/A
8:55 AM57 °FDrizzle. Partly sunny.10 mph88%29.98 "HgN/A
8:25 AM57 °FMostly cloudy.8 mph82%29.98 "HgN/A
7:55 AM55 °FMostly cloudy.6 mph82%29.98 "HgN/A
7:25 AM55 °FPassing clouds.7 mph77%29.95 "HgN/A
6:55 AM55 °FPassing clouds.6 mph77%29.95 "HgN/A
6:25 AM55 °FOvercast.7 mph88%29.95 "HgN/A
5:55 AM55 °FOvercast.9 mph88%29.95 "HgN/A
5:25 AM55 °FPassing clouds.10 mph82%29.95 "HgN/A
4:55 AM57 °FPassing clouds.12 mph82%29.95 "HgN/A
4:25 AM57 °FPassing clouds.10 mph88%29.95 "HgN/A
3:55 AM57 °FPassing clouds.10 mph88%29.95 "HgN/A
3:25 AM57 °FPassing clouds.8 mph88%29.95 "HgN/A
2:55 AM57 °FPassing clouds.8 mph88%29.95 "HgN/A
2:25 AM57 °FPartly cloudy.8 mph94%29.95 "HgN/A
1:55 AM57 °FLight rain. Partly cloudy.9 mph94%29.95 "HgN/A
1:25 AM57 °FPassing clouds.6 mph94%29.95 "HgN/A
12:55 AM57 °FRain. Partly cloudy.9 mph94%29.95 "Hg4 mi
12:25 AM57 °FPassing clouds.7 mph94%29.92 "HgN/A
11:55 PM
Fri, Sep 4
57 °FPartly cloudy.3 mph94%29.92 "HgN/A
11:25 PM57 °FPassing clouds.6 mph100%29.92 "HgN/A
10:55 PM57 °FSprinkles. Passing clouds.7 mph100%29.92 "HgN/A
10:25 PM57 °FLots of rain. Passing clouds.16 mph94%29.89 "Hg1 mi
9:55 PM57 °FPartly cloudy.14 mph100%29.92 "HgN/A
9:25 PM57 °FRain showers. Partly cloudy.17 mph94%29.89 "Hg3 mi
8:55 PM57 °FSprinkles. Mostly cloudy.18 mph94%29.89 "Hg5 mi
8:25 PM57 °FLight rain. Broken clouds.16 mph94%29.89 "Hg6 mi
7:55 PM57 °FPartly sunny.18 mph94%29.89 "HgN/A
7:25 PM57 °FLight rain. Broken clouds.15 mph94%29.89 "HgN/A
6:55 PM59 °FBroken clouds.15 mph88%29.89 "HgN/A
6:25 PM57 °FLight rain. Broken clouds.18 mph94%29.89 "HgN/A
5:55 PM57 °FSprinkles. Partly sunny.15 mph94%29.89 "Hg3 mi
5:25 PM57 °FBroken clouds.17 mph94%29.89 "HgN/A
4:55 PM55 °FLight rain. Partly sunny.17 mph100%29.89 "Hg5 mi
4:25 PM57 °FRain. Partly sunny.17 mph94%29.92 "Hg5 mi
3:55 PM57 °FRain. Broken clouds.15 mph94%29.92 "Hg6 mi
3:25 PM57 °FRain showers. Partly sunny.16 mph94%29.92 "HgN/A
2:55 PM59 °FLight rain. Broken clouds.18 mph82%29.92 "HgN/A
2:25 PM59 °FPartly sunny.14 mph88%29.92 "HgN/A
1:55 PM59 °FLight rain. Broken clouds.20 mph82%29.92 "HgN/A
1:25 PM61 °FBroken clouds.17 mph83%29.92 "HgN/A
12:55 PM61 °FBroken clouds.17 mph77%29.92 "HgN/A
12:25 PM59 °FPartly sunny.15 mph77%29.92 "HgN/A
Weather by CustomWeather, © 2015

See weather overviewHow to use our weather pages